Flag for U.S.A. Weather past 2 weeks in Bowling Green, Kentucky, U.S.A.

Now
50 °F

Clear.


Feels Like: 50 °F
Forecast: 41 / 71 °F
Wind: 3 mph from East

Location: Glasgow Municipal Airport

Current Time: Apr 1, 2015 at 1:05:38 AM

Latest Report: Apr 1, 2015 at 12:10 AM


Visibility: 10 mi

Pressure: 30.00 "Hg

Humidity: 54%

Dew point: 34 °F

Location of Bowling GreenLocation

Historic Weather in Bowling Green — Graph

°F

Bowling Green temperature yesterday

Maximum temperature yesterday: 76 °F (at 2:30 PM)
Minimum temperature yesterday: 38 °F (at 3:50 AM)
Average temperature yesterday: 59 °F

Past Weeks' High & Low Weather Summary

 TemperatureHumidityPressure
High76 °F (Mar 31, 2:30 PM)100% (Mar 19, 6:50 PM)30.36 "Hg (Mar 19, 6:50 PM)
Low21 °F (Mar 29, 5:50 AM)19% (Mar 29, 1:10 PM)29.81 "Hg (Mar 26, 4:10 AM)
Average49 °F64%30.09 "Hg
* Reported Mar 16 11:10 PM — Mar 31 11:50 PM, Bowling Green, Weather by CustomWeather, © 2015

Note: Actual official high and low records may vary slightly from our data, if they occured in-between our weather recording intervals... More about our weather records

Advertising

Bowling Green weather history for previous 24 hours

 ConditionsComfort  
Time TempWeatherWind HumidityBarometerVisibility
11:50 PM
Tue, Mar 31
54 °FClear.5 mph47%30.00 "Hg10 mi
11:30 PM55 °FClear.6 mph45%29.99 "Hg10 mi
11:10 PM56 °FClear.7 mph42%29.99 "Hg10 mi
10:50 PM58 °FClear.8 mph39%29.99 "Hg10 mi
10:10 PM59 °FClear.5 mph36%29.96 "Hg10 mi
9:50 PM59 °FClear.3 mph37%29.96 "Hg10 mi
9:10 PM59 °FClear.7 mph37%29.94 "Hg10 mi
8:50 PM59 °FClear.8 mph37%29.94 "Hg10 mi
8:30 PM60 °FClear.6 mph36%29.93 "Hg10 mi
8:10 PM63 °FClear.7 mph32%29.92 "Hg10 mi
7:50 PM63 °FClear.8 mph36%29.91 "Hg10 mi
7:30 PM63 °FClear.6 mph36%29.90 "Hg10 mi
7:10 PM66 °FClear.5 mph32%29.90 "Hg10 mi
6:50 PM68 °FSunny.7 mph29%29.88 "Hg10 mi
6:30 PM70 °FSunny.7 mph29%29.87 "Hg10 mi
6:10 PM72 °FSunny.9 mph26%29.87 "Hg10 mi
5:50 PM73 °FSunny.9 mph26%29.86 "Hg10 mi
5:30 PM73 °FSunny.12 mph26%29.86 "Hg10 mi
5:10 PM74 °FSunny.9 mph26%29.86 "Hg10 mi
4:50 PM74 °FSunny.10 mph27%29.86 "Hg10 mi
4:10 PM74 °FSunny.14 mph26%29.86 "Hg10 mi
3:50 PM74 °FSunny.14 mph27%29.87 "Hg10 mi
3:30 PM75 °FSunny.13 mph28%29.87 "Hg10 mi
3:10 PM76 °FSunny.13 mph28%29.87 "Hg10 mi
2:50 PM76 °FScattered clouds.13 mph29%29.87 "Hg10 mi
2:30 PM76 °FScattered clouds.9 mph32%29.87 "Hg10 mi
2:10 PM76 °FScattered clouds.12 mph33%29.87 "Hg10 mi
1:55 PM76 °FSunny.13 mph34%29.88 "Hg10 mi
1:10 PM74 °FSunny.20 mph38%29.89 "Hg10 mi
12:50 PM74 °FSunny.13 mph39%29.90 "Hg10 mi
12:30 PM73 °FSunny.14 mph39%29.91 "Hg10 mi
12:10 PM72 °FSunny.18 mph40%29.91 "Hg10 mi
11:50 AM71 °FSunny.16 mph44%29.92 "Hg10 mi
11:30 AM70 °FSunny.14 mph46%29.93 "Hg10 mi
11:10 AM69 °FSunny.14 mph47%29.94 "Hg10 mi
10:50 AM68 °FSunny.16 mph48%29.94 "Hg10 mi
10:30 AM67 °FSunny.14 mph48%29.94 "Hg10 mi
10:10 AM67 °FSunny.16 mph46%29.95 "Hg10 mi
9:50 AM64 °FSunny.6 mph46%29.95 "Hg10 mi
9:30 AM61 °FSunny.9 mph45%29.96 "Hg10 mi
9:10 AM58 °FSunny.8 mph46%29.96 "Hg10 mi
8:50 AM56 °FSunny.7 mph47%29.96 "Hg10 mi
8:10 AM52 °FSunny.5 mph50%29.97 "Hg10 mi
7:50 AM50 °FSunny.5 mph51%29.97 "Hg10 mi
7:10 AM44 °FSunny.No wind59%29.97 "Hg10 mi
6:50 AM44 °FSunny.No wind56%29.97 "Hg10 mi
6:30 AM44 °FClear.No wind57%29.97 "Hg10 mi
6:10 AM43 °FClear.No wind60%29.97 "Hg10 mi
5:50 AM43 °FClear.No wind59%29.97 "Hg10 mi
5:30 AM44 °FClear.No wind56%29.97 "Hg10 mi
5:10 AM43 °FClear.No wind62%29.98 "Hg10 mi
4:50 AM42 °FClear.No wind66%29.98 "Hg10 mi
4:10 AM39 °FClear.No wind78%29.98 "Hg10 mi
3:50 AM38 °FClear.No wind83%29.99 "Hg10 mi
3:10 AM39 °FClear.No wind79%30.01 "Hg10 mi
2:50 AM39 °FClear.No wind79%30.01 "Hg10 mi
2:10 AM39 °FClear.No wind79%30.03 "Hg10 mi
1:50 AM39 °FClear.No wind79%30.04 "Hg10 mi
1:30 AM40 °FClear.No wind81%30.04 "Hg10 mi
1:10 AM40 °FClear.No wind76%30.05 "Hg10 mi
Weather by CustomWeather, © 2015

See weather overviewHow to use our weather pages